CW4957 Weather Reports


Display with metric or nautical units.
time (UTC)temp
F
wind
direction
speed
MPH
gust
MPH
rain 1hr
in
rain 24hr
in
rain mn
in
humidity
%
barometer
mb
20260505083250 49 309 0.0 0.0 0.00 0.00 0.00 84 1008.1
20260505082810 49 309 0.0 0.0 0.00 0.00 0.00 84 1008.1
20260505082305 49 309 0.0 0.0 0.00 0.00 0.00 84 1008.0
20260505081803 49 309 0.0 0.0 0.00 0.00 0.00 84 1008.0
20260505081300 49 309 0.0 0.0 0.00 0.00 0.00 84 1008.0
20260505080754 49 309 0.0 0.0 0.00 0.00 0.00 83 1008.2
20260505080327 49 309 0.0 0.0 0.00 0.00 0.00 83 1008.2
20260505075826 49 309 0.0 0.0 0.00 0.00 0.00 83 1008.2
20260505075259 49 309 0.0 0.0 0.00 0.00 0.00 83 1008.2
20260505074757 50 309 0.0 0.0 0.00 0.00 0.00 83 1008.2
20260505074257 50 309 0.0 0.0 0.00 0.00 0.00 83 1008.2
20260505073824 50 309 0.0 0.0 0.00 0.00 0.00 83 1008.0
20260505073321 50 309 0.0 1.0 0.00 0.00 0.00 83 1008.0
20260505072802 50 309 0.0 1.0 0.00 0.00 0.00 83 1008.0
20260505072301 50 309 0.0 1.0 0.00 0.00 0.00 82 1008.2
20260505071759 50 309 0.0 2.0 0.00 0.00 0.00 82 1008.2
20260505071333 50 309 1.0 2.0 0.00 0.00 0.00 81 1008.2
20260505070803 50 309 0.0 0.0 0.00 0.00 0.00 80 1008.1
20260505070255 50 309 0.0 0.0 0.00 0.00 0.00 80 1008.1
20260505065831 50 309 0.0 0.0 0.00 0.00 0.00 79 1008.1
20260505065322 50 309 0.0 0.0 0.00 0.00 0.00 78 1008.3
20260505064801 50 309 0.0 0.0 0.00 0.00 0.00 78 1008.3
20260505064319 51 309 0.0 0.0 0.00 0.00 0.00 78 1008.3
20260505063754 51 309 0.0 0.0 0.00 0.00 0.00 77 1008.4
20260505063312 51 309 0.0 0.0 0.00 0.00 0.00 77 1008.4
20260505062825 51 309 0.0 0.0 0.00 0.00 0.00 76 1008.4
20260505062259 51 309 0.0 0.0 0.00 0.00 0.00 77 1008.4
20260505061754 51 309 0.0 0.0 0.00 0.00 0.00 76 1008.4
20260505061311 52 309 0.0 0.0 0.00 0.00 0.00 75 1008.4
20260505060808 52 309 0.0 0.0 0.00 0.00 0.00 75 1008.6
20260505060317 52 309 0.0 0.0 0.00 0.00 0.00 74 1008.6
20260505055756 52 309 0.0 0.0 0.00 0.00 0.00 74 1008.6
20260505055304 53 309 0.0 0.0 0.00 0.00 0.00 73 1008.7
20260505054823 53 309 0.0 0.0 0.00 0.00 0.00 73 1008.7
20260505054258 53 309 0.0 0.0 0.00 0.00 0.00 73 1008.7
20260505053757 53 309 0.0 0.0 0.00 0.00 0.00 72 1008.7
20260505053312 54 309 0.0 0.0 0.00 0.00 0.00 71 1008.7
20260505052810 54 309 0.0 0.0 0.00 0.00 0.00 71 1008.7
20260505052312 54 309 0.0 0.0 0.00 0.00 0.00 70 1008.7
20260505051803 54 309 0.0 1.0 0.00 0.00 0.00 70 1008.7
20260505051300 54 309 0.0 1.0 0.00 0.00 0.00 69 1008.7
20260505050817 55 309 0.0 0.0 0.00 0.00 0.00 69 1008.7
20260505050308 55 309 0.0 0.0 0.00 0.00 0.00 68 1008.7
20260505041753 56 265 0.0 1.0 0.00 0.00 0.00 65 1008.7
20260505041311 56 265 0.0 1.0 0.00 0.00 0.00 65 1008.7
20260505040809 57 265 0.0 2.0 0.00 0.00 0.00 64 1008.5
20260505040309 57 265 0.0 2.0 0.00 0.00 0.00 64 1008.5
20260505035821 57 257 0.0 2.0 0.00 0.00 0.00 63 1008.5
20260505035253 57 257 0.0 2.0 0.00 0.00 0.00 63 1008.4
20260505034808 57 252 0.0 1.0 0.00 0.00 0.00 62 1008.4
20260505034321 58 252 0.0 1.0 0.00 0.00 0.00 62 1008.4
20260505033753 58 252 0.0 2.0 0.00 0.00 0.00 61 1008.3
20260505033308 58 252 0.0 2.0 0.00 0.00 0.00 61 1008.3
20260505032805 58 246 0.0 1.0 0.00 0.00 0.00 61 1008.3
20260505032258 58 245 0.0 3.0 0.00 0.00 0.00 60 1008.2
20260505031755 59 360 2.0 3.0 0.00 0.00 0.00 60 1008.2
20260505031307 59 360 0.0 2.0 0.00 0.00 0.00 59 1008.2
20260505030758 59 360 1.0 2.0 0.00 0.00 0.00 59 1008.1
20260505030255 59 360 0.0 3.0 0.00 0.00 0.00 59 1008.1
20260505025813 59 360 1.0 3.0 0.00 0.00 0.00 58 1008.0
20260505025309 59 360 1.0 4.0 0.00 0.00 0.00 58 1008.0
20260505024807 60 360 0.0 6.0 0.00 0.00 0.00 58 1008.0
20260505024303 60 360 0.0 4.0 0.00 0.00 0.00 57 1008.0
20260505023800 60 360 1.0 4.0 0.00 0.00 0.00 57 1008.0
20260505023258 60 360 0.0 2.0 0.00 0.00 0.00 56 1008.0
20260505022751 60 360 0.0 3.0 0.00 0.00 0.00 56 1007.9
20260505022311 61 360 0.0 3.0 0.00 0.00 0.00 56 1007.9
20260505021802 61 360 1.0 6.0 0.00 0.00 0.00 55 1007.9
20260505021312 61 360 1.0 4.0 0.00 0.00 0.00 55 1007.9
20260505020806 61 360 1.0 7.0 0.00 0.00 0.00 54 1007.9
20260505020258 61 360 2.0 7.0 0.00 0.00 0.00 54 1007.9
20260505015750 62 360 1.0 3.0 0.00 0.00 0.00 53 1007.8
20260505015311 62 360 1.0 4.0 0.00 0.00 0.00 53 1007.8
20260505014822 62 360 2.0 5.0 0.00 0.00 0.00 53 1007.8
20260505014301 62 360 1.0 5.0 0.00 0.00 0.00 52 1007.8
20260505013759 62 360 1.0 3.0 0.00 0.00 0.00 52 1007.7
20260505013255 63 360 0.0 3.0 0.00 0.00 0.00 51 1007.7
20260505012757 63 360 1.0 4.0 0.00 0.00 0.00 50 1007.7
20260505012308 63 360 1.0 4.0 0.00 0.00 0.00 50 1007.4
20260505011803 63 360 1.0 3.0 0.00 0.00 0.00 50 1007.4
20260505011259 64 360 1.0 3.0 0.00 0.00 0.00 49 1007.4
20260505010816 64 360 1.0 4.0 0.00 0.00 0.00 49 1007.1
20260505010259 64 360 1.0 4.0 0.00 0.00 0.00 48 1007.1
20260505005813 65 360 0.0 5.0 0.00 0.00 0.00 47 1007.1
20260505005309 65 360 1.0 5.0 0.00 0.00 0.00 47 1006.8
20260505004803 65 360 2.0 4.0 0.00 0.00 0.00 46 1006.8
20260505004259 65 360 1.0 4.0 0.00 0.00 0.00 45 1006.8
20260505003802 66 360 1.0 5.0 0.00 0.00 0.00 44 1006.8
20260505003259 66 360 2.0 5.0 0.00 0.00 0.00 43 1006.8
20260505002752 66 360 1.0 6.0 0.00 0.00 0.00 43 1006.3
20260505002306 67 360 2.0 6.0 0.00 0.00 0.00 40 1006.3
20260505001806 67 360 1.0 2.0 0.00 0.00 0.00 39 1006.3
20260505001318 67 360 0.0 2.0 0.00 0.00 0.00 38 1006.3
20260505000808 67 360 1.0 2.0 0.00 0.00 0.00 36 1006.1
20260505000318 68 360 0.0 3.0 0.00 0.00 0.00 37 1006.1
20260504235758 68 360 1.0 3.0 0.00 0.00 0.00 36 1006.1
20260504235256 68 360 1.0 3.0 0.00 0.00 0.00 36 1005.8
20260504234808 68 360 0.0 2.0 0.00 0.00 0.00 36 1005.8
20260504234304 68 360 0.0 2.0 0.00 0.00 0.00 36 1005.8
20260504233759 69 360 0.0 2.0 0.00 0.00 0.00 36 1005.7
20260504233257 69 360 0.0 3.0 0.00 0.00 0.00 35 1005.7
20260504232808 69 360 0.0 1.0 0.00 0.00 0.00 35 1005.7
20260504232306 69 360 0.0 4.0 0.00 0.00 0.00 34 1005.4
20260504231800 70 360 0.0 4.0 0.00 0.00 0.00 34 1005.4
20260504231258 70 360 0.0 5.0 0.00 0.00 0.00 34 1005.4
20260504230811 70 360 2.0 5.0 0.00 0.00 0.00 33 1005.3
20260504230319 70 360 2.0 7.0 0.00 0.00 0.00 33 1005.3
20260504225800 70 360 2.0 7.0 0.00 0.00 0.00 33 1005.3
20260504225257 70 360 3.0 7.0 0.00 0.00 0.00 32 1005.2
20260504224811 70 360 4.0 9.0 0.00 0.00 0.00 32 1005.2
20260504224252 71 360 4.0 9.0 0.00 0.00 0.00 32 1004.9
20260504223807 71 360 1.0 6.0 0.00 0.00 0.00 33 1004.9
20260504223307 71 360 1.0 7.0 0.00 0.00 0.00 33 1004.9
20260504222802 71 360 1.0 8.0 0.00 0.00 0.00 33 1004.9
20260504222302 72 360 3.0 7.0 0.00 0.00 0.00 32 1005.0
20260504221758 72 360 4.0 8.0 0.00 0.00 0.00 32 1005.0
20260504221252 72 264 4.0 8.0 0.00 0.00 0.00 31 1005.2
20260504220802 72 227 2.0 7.0 0.00 0.00 0.00 32 1005.2
20260504220254 72 227 2.0 8.0 0.00 0.00 0.00 31 1005.2
20260504215808 72 360 4.0 8.0 0.00 0.00 0.00 30 1005.2
20260504215301 72 236 2.0 9.0 0.00 0.00 0.00 32 1005.2
20260504214755 73 229 4.0 10.0 0.00 0.00 0.00 31 1005.2
20260504214312 73 250 4.0 10.0 0.00 0.00 0.00 31 1005.2
20260504213806 73 217 4.0 7.0 0.00 0.00 0.00 31 1005.2
20260504213321 73 221 2.0 5.0 0.00 0.00 0.00 31 1005.2
20260504212758 73 211 2.0 6.0 0.00 0.00 0.00 30 1005.2
20260504212255 73 224 3.0 6.0 0.00 0.00 0.00 31 1005.2
20260504211817 73 225 1.0 9.0 0.00 0.00 0.00 31 1005.2
20260504211308 73 225 4.0 9.0 0.00 0.00 0.00 30 1005.2
20260504210806 73 268 2.0 7.0 0.00 0.00 0.00 32 1005.2
20260504210313 73 212 2.0 7.0 0.00 0.00 0.00 32 1005.2
20260504205827 73 200 5.0 9.0 0.00 0.00 0.00 30 1005.2
20260504205258 73 242 5.0 12.0 0.00 0.00 0.00 30 1005.3
20260504204757 73 360 3.0 8.0 0.00 0.00 0.00 31 1005.3
20260504204313 73 210 4.0 12.0 0.00 0.00 0.00 30 1005.3
20260504203804 73 251 3.0 12.0 0.00 0.00 0.00 31 1005.3
20260504203322 73 213 4.0 10.0 0.00 0.00 0.00 30 1005.3
20260504202825 73 230 4.0 13.0 0.00 0.00 0.00 30 1005.3
20260504202325 73 214 2.0 7.0 0.00 0.00 0.00 31 1005.3
20260504201756 73 225 4.0 7.0 0.00 0.00 0.00 30 1005.3
20260504201329 73 215 3.0 7.0 0.00 0.00 0.00 30 1005.3
20260504200801 73 212 3.0 8.0 0.00 0.00 0.00 30 1005.4
20260504200332 73 224 2.0 9.0 0.00 0.00 0.00 31 1005.4
20260504195802 74 237 4.0 9.0 0.00 0.00 0.00 29 1005.4
20260504195319 74 229 3.0 8.0 0.00 0.00 0.00 30 1005.5
20260504194754 74 271 3.0 8.0 0.00 0.00 0.00 30 1005.5
20260504194252 74 215 4.0 7.0 0.00 0.00 0.00 31 1005.7
20260504193756 74 217 3.0 9.0 0.00 0.00 0.00 30 1005.7
20260504193250 74 233 3.0 9.0 0.00 0.00 0.00 30 1005.7
20260504192811 74 271 5.0 8.0 0.00 0.00 0.00 29 1005.7
20260504192327 74 182 3.0 11.0 0.00 0.00 0.00 29 1005.7
20260504191759 74 242 4.0 11.0 0.00 0.00 0.00 31 1005.7
20260504191252 74 211 4.0 8.0 0.00 0.00 0.00 30 1005.7
20260504190805 74 217 5.0 10.0 0.00 0.00 0.00 29 1005.7
20260504190256 74 246 5.0 10.0 0.00 0.00 0.00 29 1005.7
20260504185752 74 242 4.0 10.0 0.00 0.00 0.00 31 1005.8
20260504185309 73 227 4.0 8.0 0.00 0.00 0.00 31 1005.8
20260504184805 73 214 2.0 9.0 0.00 0.00 0.00 32 1005.8
20260504184304 72 213 4.0 9.0 0.00 0.00 0.00 31 1005.8
20260504183818 73 210 4.0 17.0 0.00 0.00 0.00 30 1005.9
20260504183253 73 191 4.0 11.0 0.00 0.00 0.00 31 1005.9
20260504182825 73 202 3.0 11.0 0.00 0.00 0.00 32 1005.9
20260504182305 72 211 3.0 11.0 0.00 0.00 0.00 31 1006.1
20260504181759 72 219 4.0 10.0 0.00 0.00 0.00 31 1006.1
20260504181312 72 205 4.0 11.0 0.00 0.00 0.00 30 1006.1
20260504180802 73 217 4.0 12.0 0.00 0.00 0.00 30 1006.2
20260504180254 73 263 4.0 8.0 0.00 0.00 0.00 32 1006.2
20260504175807 73 219 4.0 12.0 0.00 0.00 0.00 31 1006.2
20260504175304 72 250 3.0 12.0 0.00 0.00 0.00 30 1006.2
20260504174804 72 218 4.0 9.0 0.00 0.00 0.00 31 1006.2
20260504174253 72 220 3.0 8.0 0.00 0.00 0.00 30 1006.3
20260504173754 72 209 4.0 10.0 0.00 0.00 0.00 30 1006.3
20260504173250 72 293 3.0 6.0 0.00 0.00 0.00 31 1006.3
20260504172810 71 325 2.0 8.0 0.00 0.00 0.00 32 1006.3
20260504172303 71 246 4.0 12.0 0.00 0.00 0.00 30 1006.6
20260504171801 71 238 5.0 8.0 0.00 0.00 0.00 30 1006.6
20260504171257 71 218 4.0 11.0 0.00 0.00 0.00 31 1006.6
20260504170808 70 245 4.0 7.0 0.00 0.00 0.00 30 1006.5
20260504170257 70 321 2.0 8.0 0.00 0.00 0.00 31 1006.5
20260504160257 68 213 3.0 14.0 0.00 0.00 0.00 32 1007.3
20260504150756 66 232 6.0 11.0 0.00 0.00 0.00 35 1007.9
20260504150302 66 222 2.0 13.0 0.00 0.00 0.00 36 1007.9
20260504141259 62 360 4.0 8.0 0.00 0.00 0.00 44 1008.4
20260504140758 61 360 2.0 5.0 0.00 0.00 0.00 45 1008.4
20260504140306 61 138 1.0 5.0 0.00 0.00 0.00 47 1008.4
20260504130808 54 126 1.0 4.0 0.00 0.00 0.00 59 1008.9
20260504130256 53 360 0.0 2.0 0.00 0.00 0.00 61 1008.9
20260504120257 43 263 1.0 3.0 0.00 0.00 0.00 76 1009.9
20260504110328 39 309 1.0 2.0 0.00 0.00 0.00 82 1009.9
20260504100304 39 234 0.0 0.0 0.00 0.00 0.00 82 1009.4